Temp
-7 -7 -7 -7 -7 -6 -6 -7 -8 -7 -7 -7 -7 -8 -8 -8 -8 -7 -7 -6 -6 -6 -7 -7 -6 -6 -6 -6 -5 -5 -6 -5 -6 -5 -5 -5 -5 -5 -5 -5 -4 -5 -5 -5 -4 -4 -4 -5 -5
-8 -8 -7 -7 -7 -6 -7 -9 -9 -8 -8 -8 -7 -7 -8 -8 -8 -7 -7 -6 -7 -6 -6 -7 -6 -6 -6 -6 -6 -6 -6 -6 -6 -6 -6 -5 -5 -5 -5 -5 -5 -5 -5 -5 -5 -5 -5 -5 -6
-8 -8 -8 -7 -7 -7 -8 -7 -8 -8 -9 -9 -9 -7 -8 -8 -8 -7 -7 -7 -6 -6 -6 -7 -7 -6 -6 -6 -6 -6 -6 -6 -6 -6 -6 -6 -5 -5 -5 -5 -5 -5 -5 -5 -5 -6 -6 -6 -6
-8 -8 -8 -7 -7 -7 -8 -8 -9 -8 -8 -9 -9 -9 -8 -8 -8 -7 -8 -8 -7 -6 -7 -8 -7 -6 -6 -6 -6 -6 -6 -6 -6 -6 -6 -6 -6 -6 -6 -5 -5 -5 -5 -5 -6 -6 -6 -6 -6
-8 -8 -8 -7 -7 -8 -9 -7 -8 -9 -8 -9 -8 -9 -9 -9 -8 -8 -7 -7 -8 -7 -7 -7 -7 -7 -7 -6 -6 -7 -7 -7 -6 -6 -6 -6 -6 -6 -6 -6 -6 -6 -5 -6 -6 -6 -6 -6 -7
-8 -8 -7 -7 -8 -8 -9 -9 -9 -10 -11 -9 -9 -9 -8 -8 -8 -8 -7 -6 -7 -8 -7 -7 -8 -7 -7 -7 -7 -7 -7 -7 -7 -7 -7 -6 -6 -6 -6 -6 -6 -6 -6 -6 -6 -6 -7 -7 -8
-9 -9 -8 -8 -8 -8 -9 -10 -10 -9 -10 -10 -10 -9 -9 -8 -8 -8 -7 -7 -7 -8 -8 -7 -7 -8 -8 -8 -8 -8 -8 -8 -8 -7 -7 -7 -7 -7 -7 -7 -6 -6 -6 -6 -7 -7 -8 -8 -8
-10 -9 -8 -8 -8 -7 -9 -10 -10 -10 -10 -11 -10 -10 -9 -8 -8 -8 -8 -6 -8 -8 -8 -8 -8 -8 -8 -9 -8 -8 -8 -8 -8 -8 -8 -7 -7 -7 -7 -7 -7 -7 -6 -6 -7 -7 -8 -8 -8
-10 -8 -8 -8 -8 -8 -9 -10 -10 -11 -10 -10 -10 -11 -10 -9 -8 -8 -8 -8 -7 -7 -8 -8 -8 -9 -9 -9 -9 -9 -8 -8 -8 -8 -8 -8 -8 -8 -7 -8 -7 -7 -7 -7 -7 -8 -8 -9 -9
-9 -9 -8 -9 -9 -9 -10 -10 -11 -11 -10 -9 -11 -11 -11 -10 -10 -10 -9 -8 -8 -8 -8 -8 -8 -9 -9 -9 -9 -9 -9 -9 -9 -9 -9 -8 -9 -8 -8 -9 -8 -8 -8 -8 -8 -8 -9 -9 -10
-10 -9 -10 -9 -9 -9 -9 -10 -11 -11 -10 -10 -9 -11 -11 -11 -11 -10 -10 -9 -7 -8 -8 -8 -8 -8 -9 -9 -9 -9 -9 -9 -9 -9 -9 -9 -9 -9 -9 -9 -9 -9 -8 -8 -8 -8 -9 -9 -10
-9 -9 -10 -10 -10 -10 -9 -11 -11 -11 -10 -10 -10 -11 -12 -11 -11 -11 -10 -9 -8 -7 -8 -9 -8 -8 -9 -9 -9 -9 -9 -9 -9 -9 -9 -9 -9 -9 -9 -9 -9 -9 -9 -9 -9 -9 -9 -9 -10
-10 -11 -10 -9 -10 -10 -11 -10 -11 -10 -10 -11 -11 -11 -11 -11 -11 -11 -11 -10 -9 -8 -7 -9 -9 -9 -9 -9 -9 -9 -9 -9 -9 -9 -9 -9 -9 -9 -9 -9 -9 -9 -9 -9 -9 -9 -9 -9 -10
-12 -11 -11 -10 -10 -10 -11 -10 -12 -11 -11 -11 -12 -10 -11 -11 -11 -11 -11 -11 -9 -9 -9 -9 -10 -9 -9 -9 -9 -9 -9 -10 -9 -9 -10 -10 -9 -10 -10 -9 -9 -9 -9 -9 -9 -9 -9 -10 -10
-12 -12 -12 -12 -12 -12 -12 -12 -10 -11 -13 -13 -13 -11 -11 -11 -10 -10 -11 -12 -11 -10 -10 -10 -11 -10 -10 -10 -10 -10 -9 -10 -9 -9 -9 -10 -10 -9 -10 -10 -9 -9 -9 -9 -9 -9 -9 -9 -10
-12 -12 -12 -13 -13 -13 -14 -11 -11 -13 -13 -13 -13 -12 -11 -11 -11 -10 -10 -11 -11 -11 -11 -11 -11 -11 -10 -10 -10 -10 -10 -10 -10 -9 -9 -9 -10 -10 -9 -9 -10 -9 -9 -9 -9 -9 -9 -9 -9
-13 -13 -13 -13 -14 -14 -15 -13 -12 -14 -14 -13 -13 -13 -13 -12 -11 -11 -12 -12 -13 -12 -11 -12 -11 -12 -11 -11 -10 -10 -10 -10 -9 -9 -9 -9 -10 -10 -10 -10 -10 -9 -9 -9 -9 -10 -10 -10 -10
-14 -14 -13 -13 -14 -16 -15 -14 -12 -13 -15 -14 -13 -13 -13 -13 -13 -12 -12 -12 -12 -12 -12 -12 -11 -12 -12 -12 -11 -10 -10 -10 -10 -9 -9 -9 -9 -9 -10 -11 -11 -10 -9 -9 -9 -9 -9 -9 -10
-15 -15 -14 -14 -14 -16 -16 -15 -13 -14 -15 -13 -13 -13 -13 -13 -14 -13 -12 -12 -12 -12 -11 -11 -12 -12 -12 -12 -11 -11 -11 -11 -11 -10 -10 -9 -9 -9 -9 -11 -12 -10 -10 -10 -9 -9 -9 -10 -10
-15 -15 -15 -15 -15 -16 -15 -15 -14 -15 -14 -14 -13 -13 -13 -13 -14 -13 -13 -12 -12 -12 -11 -12 -12 -12 -13 -13 -12 -12 -11 -11 -10 -10 -10 -10 -9 -9 -9 -10 -11 -11 -10 -9 -9 -9 -9 -10 -10
-16 -16 -16 -16 -16 -16 -16 -16 -15 -17 -16 -14 -13 -13 -13 -14 -14 -14 -13 -13 -12 -12 -12 -12 -12 -12 -12 -13 -13 -13 -12 -11 -11 -11 -11 -10 -9 -10 -10 -10 -10 -10 -9 -10 -10 -10 -10 -10 -10
-17 -17 -18 -18 -17 -17 -17 -17 -16 -16 -17 -15 -15 -14 -14 -14 -14 -14 -13 -13 -13 -12 -12 -12 -12 -13 -13 -13 -13 -13 -13 -13 -12 -11 -11 -10 -9 -10 -10 -9 -9 -10 -10 -9 -10 -10 -10 -9 -10
-17 -18 -18 -18 -18 -18 -16 -18 -16 -16 -16 -15 -15 -16 -16 -16 -15 -14 -13 -13 -13 -13 -12 -12 -13 -14 -13 -13 -13 -13 -13 -13 -13 -12 -11 -12 -11 -10 -10 -10 -10 -10 -10 -10 -10 -10 -10 -10 -10
-18 -18 -19 -18 -18 -18 -16 -18 -16 -16 -16 -16 -16 -15 -16 -16 -15 -15 -14 -13 -13 -13 -13 -13 -14 -14 -13 -13 -14 -14 -13 -13 -13 -13 -12 -12 -11 -12 -11 -10 -11 -11 -10 -10 -10 -11 -10 -10 -10
-19 -19 -19 -18 -19 -17 -18 -18 -16 -17 -17 -18 -17 -16 -16 -16 -16 -16 -15 -14 -14 -14 -13 -13 -14 -14 -14 -13 -13 -13 -13 -13 -13 -13 -13 -13 -12 -12 -12 -11 -11 -11 -11 -11 -10 -11 -11 -10 -10
-18 -19 -19 -19 -19 -18 -18 -17 -17 -18 -17 -17 -16 -16 -16 -15 -15 -15 -16 -17 -16 -15 -14 -14 -14 -14 -14 -14 -13 -13 -13 -13 -13 -13 -13 -12 -13 -12 -12 -12 -12 -11 -10 -11 -11 -11 -11 -10 -10
-19 -19 -20 -19 -19 -19 -18 -17 -18 -18 -17 -18 -17 -17 -17 -17 -17 -17 -18 -17 -17 -17 -16 -16 -14 -14 -14 -14 -14 -13 -13 -13 -13 -13 -13 -13 -12 -13 -13 -13 -12 -12 -11 -11 -10 -10 -10 -10 -10
-20 -19 -19 -19 -19 -18 -17 -18 -18 -18 -17 -18 -18 -17 -17 -17 -18 -18 -18 -17 -17 -17 -16 -16 -15 -15 -15 -15 -14 -14 -13 -13 -13 -13 -13 -14 -14 -13 -13 -14 -11 -12 -11 -11 -10 -11 -11 -11 -11
-20 -20 -20 -20 -20 -20 -18 -19 -19 -18 -18 -18 -18 -17 -18 -18 -17 -17 -17 -17 -17 -16 -15 -15 -15 -15 -15 -15 -15 -14 -14 -14 -14 -14 -14 -13 -13 -13 -13 -13 -14 -13 -12 -12 -12 -12 -12 -11 -11
-20 -21 -20 -20 -20 -20 -19 -19 -19 -19 -19 -19 -19 -18 -18 -18 -18 -17 -17 -16 -16 -16 -15 -15 -15 -15 -15 -15 -15 -15 -15 -15 -15 -14 -14 -14 -13 -13 -13 -13 -13 -13 -13 -12 -12 -12 -12 -12 -11
Height
5868 5870 5872 5873 5881 5884 5889 5896 5890 5889 5893 5890 5892 5891 5892 5896 5899 5904 5904 5906 5908 5908 5908 5910 5911 5911 5913 5912 5913 5914 5915 5915 5916 5917 5917 5917 5917 5917 5916 5915 5914 5913 5911 5910 5909 5907 5905 5902 5900
5861 5864 5867 5869 5873 5878 5886 5883 5881 5884 5889 5888 5887 5885 5888 5893 5895 5898 5901 5904 5904 5906 5906 5908 5909 5911 5912 5912 5913 5914 5914 5915 5916 5917 5918 5918 5917 5917 5916 5915 5914 5912 5911 5910 5908 5907 5905 5903 5900
5855 5858 5861 5861 5866 5874 5879 5876 5878 5879 5882 5885 5876 5883 5884 5890 5892 5894 5895 5898 5903 5903 5904 5905 5907 5908 5910 5911 5913 5914 5915 5916 5916 5916 5917 5918 5917 5917 5916 5915 5914 5912 5911 5910 5909 5907 5905 5903 5901
5849 5851 5854 5854 5861 5870 5871 5873 5874 5874 5877 5880 5874 5874 5879 5879 5887 5889 5890 5895 5899 5900 5901 5902 5905 5907 5908 5910 5910 5913 5915 5916 5917 5917 5916 5916 5917 5916 5915 5915 5913 5912 5911 5911 5909 5907 5905 5903 5901
5841 5842 5845 5847 5855 5863 5866 5868 5865 5869 5872 5874 5870 5872 5873 5873 5878 5884 5886 5891 5897 5896 5898 5900 5902 5904 5905 5906 5907 5910 5912 5914 5916 5916 5916 5916 5916 5915 5914 5913 5912 5911 5911 5910 5909 5907 5905 5904 5901
5833 5836 5838 5841 5849 5855 5862 5862 5858 5862 5864 5868 5866 5867 5868 5867 5866 5874 5881 5886 5890 5894 5896 5898 5899 5900 5901 5903 5904 5906 5908 5910 5912 5913 5914 5914 5914 5914 5914 5913 5913 5911 5910 5909 5908 5907 5905 5903 5900
5826 5830 5832 5835 5840 5844 5856 5856 5854 5855 5855 5860 5861 5862 5862 5863 5860 5860 5873 5881 5889 5893 5892 5894 5895 5896 5897 5900 5901 5903 5906 5907 5908 5909 5911 5911 5911 5911 5912 5912 5911 5911 5909 5908 5906 5905 5903 5901 5898
5819 5821 5824 5828 5832 5839 5847 5847 5850 5848 5852 5851 5856 5855 5858 5859 5858 5856 5861 5875 5885 5887 5887 5889 5891 5892 5894 5896 5898 5900 5902 5904 5906 5906 5907 5908 5907 5907 5908 5908 5908 5908 5907 5906 5905 5904 5902 5899 5896
5812 5814 5819 5824 5826 5831 5836 5839 5841 5842 5842 5844 5846 5849 5851 5852 5853 5850 5854 5867 5875 5880 5883 5883 5884 5885 5888 5891 5893 5896 5898 5900 5902 5904 5904 5904 5904 5904 5904 5905 5904 5904 5904 5903 5903 5902 5901 5899 5896
5804 5809 5812 5816 5816 5819 5824 5826 5831 5831 5832 5837 5837 5839 5839 5843 5848 5850 5846 5854 5862 5870 5875 5877 5879 5879 5881 5885 5888 5891 5893 5896 5898 5899 5901 5901 5900 5900 5900 5900 5901 5902 5901 5901 5900 5899 5898 5897 5895
5800 5802 5803 5807 5808 5810 5813 5815 5818 5819 5821 5827 5828 5833 5827 5832 5835 5840 5839 5841 5852 5859 5864 5867 5871 5873 5876 5878 5882 5885 5888 5890 5893 5895 5897 5897 5897 5897 5897 5897 5898 5898 5899 5898 5898 5899 5897 5895 5893
5790 5791 5793 5798 5801 5802 5805 5810 5810 5809 5814 5815 5821 5823 5822 5820 5824 5827 5834 5832 5841 5848 5853 5858 5861 5866 5868 5871 5874 5879 5882 5885 5887 5890 5892 5892 5893 5893 5893 5895 5895 5895 5895 5895 5895 5895 5895 5894 5891
5782 5783 5784 5787 5790 5792 5795 5799 5799 5803 5804 5803 5807 5810 5814 5814 5815 5818 5824 5831 5829 5837 5842 5847 5851 5855 5860 5863 5866 5871 5875 5878 5881 5882 5885 5887 5888 5889 5890 5891 5892 5892 5892 5891 5891 5890 5890 5890 5888
5777 5777 5779 5781 5782 5782 5781 5784 5787 5800 5794 5793 5795 5798 5804 5806 5807 5809 5814 5820 5821 5825 5829 5835 5840 5845 5848 5854 5858 5863 5867 5871 5873 5875 5878 5881 5882 5882 5884 5885 5887 5887 5887 5886 5887 5885 5885 5885 5885
5767 5768 5770 5775 5775 5775 5774 5775 5784 5790 5784 5784 5786 5786 5792 5796 5800 5800 5804 5810 5814 5818 5819 5821 5828 5834 5837 5845 5849 5854 5859 5862 5865 5868 5870 5873 5875 5875 5876 5878 5880 5881 5880 5880 5881 5882 5880 5879 5880
5757 5758 5760 5767 5765 5768 5764 5766 5775 5779 5781 5780 5780 5778 5782 5788 5791 5793 5795 5800 5804 5810 5813 5817 5818 5823 5828 5833 5839 5840 5845 5851 5855 5859 5862 5864 5866 5868 5869 5871 5873 5872 5874 5875 5874 5876 5876 5875 5876
5750 5752 5752 5757 5757 5754 5752 5753 5764 5763 5763 5768 5773 5773 5772 5775 5776 5784 5787 5786 5796 5800 5804 5807 5809 5809 5816 5822 5826 5832 5832 5836 5843 5848 5852 5854 5855 5859 5863 5864 5865 5864 5866 5869 5868 5870 5870 5869 5870
5743 5741 5741 5743 5750 5741 5740 5740 5747 5747 5747 5756 5761 5763 5764 5765 5767 5772 5774 5779 5784 5789 5793 5794 5797 5799 5801 5809 5813 5817 5823 5827 5830 5834 5838 5845 5847 5848 5852 5854 5855 5854 5856 5859 5861 5862 5863 5863 5864
5731 5731 5730 5733 5733 5728 5728 5730 5735 5735 5740 5743 5748 5751 5755 5756 5758 5761 5765 5767 5773 5776 5781 5787 5787 5789 5790 5793 5801 5803 5809 5815 5820 5820 5827 5829 5829 5833 5839 5842 5842 5846 5847 5848 5851 5854 5855 5855 5855
5721 5719 5719 5721 5720 5716 5720 5719 5723 5723 5729 5733 5736 5740 5744 5745 5745 5748 5755 5759 5762 5766 5770 5774 5777 5777 5779 5783 5789 5791 5794 5797 5803 5808 5811 5813 5816 5821 5823 5826 5834 5835 5838 5840 5842 5845 5846 5846 5846
5711 5709 5708 5708 5708 5709 5708 5707 5714 5716 5716 5721 5724 5729 5731 5736 5735 5737 5743 5749 5753 5755 5758 5764 5765 5766 5768 5772 5776 5779 5783 5786 5788 5795 5801 5805 5803 5811 5814 5817 5823 5825 5828 5830 5833 5834 5837 5837 5839
5698 5701 5699 5698 5698 5697 5700 5697 5704 5707 5706 5709 5711 5713 5717 5720 5723 5726 5731 5736 5740 5744 5746 5751 5753 5756 5756 5760 5764 5767 5770 5775 5777 5781 5787 5793 5796 5800 5799 5802 5808 5814 5817 5819 5821 5822 5826 5828 5830
5692 5692 5690 5688 5687 5686 5690 5685 5694 5697 5697 5700 5700 5703 5708 5711 5714 5716 5721 5726 5730 5732 5736 5739 5742 5744 5747 5750 5752 5755 5758 5763 5766 5771 5773 5781 5785 5789 5791 5796 5800 5803 5806 5811 5812 5812 5811 5817 5822
5684 5683 5681 5679 5677 5675 5682 5676 5680 5687 5689 5688 5689 5692 5696 5698 5701 5702 5707 5711 5716 5721 5724 5728 5733 5735 5736 5738 5740 5744 5747 5751 5754 5758 5762 5769 5772 5775 5779 5784 5789 5790 5794 5798 5803 5802 5801 5807 5811
5676 5673 5671 5670 5668 5668 5672 5668 5674 5675 5673 5671 5671 5680 5683 5686 5691 5692 5695 5699 5701 5706 5710 5714 5719 5721 5723 5725 5728 5733 5737 5739 5743 5747 5749 5752 5760 5764 5767 5770 5773 5776 5780 5785 5785 5789 5795 5798 5800
5662 5665 5664 5659 5656 5658 5662 5660 5666 5663 5660 5660 5660 5668 5670 5676 5680 5683 5687 5691 5694 5694 5696 5699 5703 5707 5711 5714 5717 5720 5724 5728 5733 5735 5737 5740 5743 5747 5751 5755 5759 5764 5766 5768 5775 5778 5782 5786 5789
5656 5655 5651 5651 5652 5647 5649 5655 5656 5653 5653 5652 5653 5657 5663 5667 5671 5674 5677 5679 5683 5686 5687 5687 5689 5692 5697 5703 5707 5709 5713 5717 5721 5723 5726 5729 5729 5731 5735 5742 5748 5752 5754 5756 5760 5768 5769 5771 5779
5645 5645 5642 5642 5642 5640 5642 5644 5646 5646 5646 5646 5647 5646 5648 5651 5658 5662 5665 5669 5674 5676 5678 5678 5678 5681 5686 5691 5694 5698 5701 5705 5708 5712 5716 5720 5722 5724 5727 5730 5732 5739 5743 5744 5749 5755 5762 5762 5766
5635 5635 5634 5634 5634 5634 5633 5637 5638 5637 5639 5640 5637 5636 5637 5639 5642 5646 5650 5654 5658 5660 5663 5665 5667 5671 5675 5679 5682 5685 5689 5693 5696 5699 5702 5707 5710 5712 5717 5721 5720 5726 5727 5734 5737 5743 5747 5754 5757
5626 5626 5626 5626 5628 5628 5628 5630 5632 5631 5629 5629 5633 5631 5634 5633 5636 5639 5641 5644 5646 5648 5650 5654 5656 5659 5663 5667 5671 5675 5679 5680 5684 5687 5690 5693 5697 5700 5704 5707 5710 5715 5718 5721 5726 5731 5738 5744 5748
Wind_Speed
41 42 39 35 33 30 25 17 26 31 31 32 31 22 27 29 23 26 26 23 20 17 17 17 12 10 12 10 10 7 4 4 4 6 7 6 7 6 5 4 3 4 6 6 7 7 8 10 11
45 43 41 40 37 32 23 33 35 35 33 25 35 31 27 27 30 31 29 26 21 20 16 14 12 13 15 14 13 11 8 5 4 5 7 7 7 6 5 5 4 5 7 9 9 9 9 11 12
47 45 45 47 44 35 25 32 40 38 34 28 29 36 31 29 32 37 37 33 25 17 17 16 17 15 17 16 15 15 10 9 6 4 5 7 8 8 6 5 4 6 9 10 8 7 9 9 11
50 47 50 50 47 37 31 33 43 43 39 32 37 35 37 37 37 41 42 36 29 28 22 21 19 18 19 19 17 16 16 12 10 8 7 7 9 10 7 6 5 5 9 10 7 6 7 9 11
44 48 51 53 50 40 32 36 44 46 44 40 44 43 42 42 44 47 48 45 38 34 33 28 25 24 23 22 21 19 16 17 14 13 12 10 11 11 9 7 6 5 6 5 7 7 8 11 13
44 43 47 48 47 44 32 39 44 50 36 41 44 46 50 50 50 49 53 49 46 43 41 35 29 27 26 25 23 22 19 16 16 16 15 13 11 11 10 9 8 3 3 5 7 8 10 14 13
41 43 43 43 43 42 35 40 42 43 46 50 47 48 50 55 55 57 54 52 49 44 39 38 36 31 30 28 26 24 22 20 16 16 17 16 15 14 14 13 11 10 8 7 6 7 11 13 12
38 43 41 43 44 44 34 44 48 49 50 39 49 49 55 53 57 63 61 54 49 49 47 45 42 35 32 31 29 28 26 24 20 18 18 19 19 18 17 16 13 12 11 9 10 10 10 10 12
40 42 37 33 35 34 35 42 49 54 54 50 44 43 50 54 58 62 63 55 54 56 51 53 48 39 35 35 33 32 31 28 23 21 21 20 20 19 18 16 14 13 13 13 12 11 12 12 13
37 37 34 31 34 33 32 39 46 54 59 58 49 44 49 49 49 49 56 54 47 36 49 49 51 45 39 37 37 36 34 31 28 26 24 23 21 20 17 15 13 13 14 14 14 10 8 11 12
37 37 37 35 37 37 35 37 44 51 56 58 64 57 53 49 44 48 51 55 47 41 47 47 55 51 46 41 39 40 37 35 33 31 27 27 24 22 19 17 16 15 16 17 17 13 10 13 14
39 41 40 38 39 39 40 33 43 50 50 56 57 46 51 54 51 50 45 51 53 47 37 43 52 56 52 48 43 43 41 38 37 34 31 29 29 26 25 21 19 19 18 19 19 17 14 11 11
42 41 44 43 42 42 42 42 38 44 49 53 54 57 50 48 47 44 46 42 47 47 50 38 48 54 56 54 50 47 45 42 40 38 35 34 32 31 30 26 25 23 23 23 21 20 20 16 13
38 43 43 45 46 47 48 47 42 42 52 56 56 56 47 45 46 47 41 37 41 37 45 45 49 52 57 57 56 52 49 46 46 43 40 38 37 35 33 32 29 28 27 27 25 23 22 19 15
35 37 39 40 41 42 45 48 44 43 59 57 56 59 56 53 52 53 45 36 39 42 44 50 50 54 54 53 56 57 55 53 50 48 44 42 42 39 39 37 33 35 34 31 29 28 26 25 20
35 38 39 35 38 38 38 49 43 34 45 61 59 60 58 56 55 52 46 43 45 33 31 44 49 57 55 55 52 51 53 57 56 55 53 50 45 44 44 44 41 41 40 36 35 32 30 27 22
34 35 37 36 37 38 34 45 42 36 38 49 64 63 65 64 59 53 51 49 41 41 43 47 44 56 58 55 62 52 63 64 60 60 57 51 44 47 50 48 47 48 46 42 42 37 33 32 26
34 38 39 40 34 40 40 48 49 45 39 40 48 66 65 64 64 58 57 50 50 49 44 44 55 47 61 58 59 67 66 63 60 65 60 58 60 57 54 49 51 56 51 48 47 45 30 34 31
37 39 41 40 40 42 45 49 52 52 42 47 46 53 61 66 68 61 54 53 45 47 44 41 52 54 51 63 67 63 66 69 70 69 68 68 70 66 50 54 52 58 58 52 50 47 37 33 29
39 41 42 42 42 43 46 50 51 47 49 51 51 48 49 52 56 57 54 52 48 47 47 44 40 59 58 47 65 72 64 68 74 77 71 66 69 65 61 50 59 64 62 58 54 50 44 37 30
38 38 39 42 43 42 47 51 49 37 43 46 51 54 51 45 47 52 50 49 46 48 47 40 43 48 63 58 59 55 75 74 72 72 64 62 66 70 69 59 68 63 68 60 61 55 53 41 39
38 33 37 38 38 42 40 49 46 46 46 47 48 47 44 41 44 45 49 47 47 46 46 44 43 44 54 63 56 61 59 74 77 74 72 74 64 64 76 78 63 60 81 67 64 64 55 51 41
36 36 37 37 36 36 37 44 36 51 52 53 54 55 52 43 46 48 48 48 49 48 46 43 43 40 46 55 58 58 59 60 65 79 80 72 67 77 79 77 70 76 66 71 59 65 67 45 43
35 37 40 41 41 37 29 38 34 28 46 60 59 59 47 50 42 44 41 43 45 46 47 45 40 39 40 49 52 57 54 64 59 64 79 77 73 76 64 68 73 72 78 70 71 68 75 59 57
40 39 43 44 46 41 29 34 26 31 34 45 64 60 54 52 42 44 41 40 40 43 47 47 41 42 42 43 48 51 54 54 60 66 66 69 82 80 73 58 70 71 70 68 68 66 65 52 50
39 24 33 39 45 45 40 34 23 28 31 32 45 44 44 43 39 42 36 36 36 40 42 45 47 46 44 44 43 47 53 56 53 46 54 71 74 75 83 83 62 63 74 78 75 79 67 61 53
37 33 30 35 36 37 37 35 23 26 29 31 32 32 44 42 35 34 38 36 31 37 33 38 44 43 43 44 46 46 47 47 50 51 48 44 45 52 61 72 83 60 60 50 51 54 53 37 42
41 25 30 32 35 31 32 25 30 24 28 31 35 39 39 40 45 48 50 49 46 45 40 37 40 41 37 40 44 48 49 48 47 47 47 48 43 39 39 44 70 73 76 63 57 60 46 30 35
35 29 30 28 27 29 26 29 27 29 31 29 33 40 45 46 49 53 52 51 48 42 42 43 41 39 37 35 39 43 45 46 47 47 46 47 48 41 42 41 33 40 47 70 52 52 44 35 22
23 30 36 33 29 28 31 31 33 27 31 26 27 24 38 39 40 41 44 45 41 39 37 38 40 39 37 36 36 38 39 40 40 41 42 42 44 42 43 40 39 38 37 34 38 43 40 36 29
Wind_Direction
235 239 241 239 235 225 223 187 185 196 192 206 209 220 257 251 241 240 247 252 255 264 254 275 272 266 263 255 256 237 255 284 322 327 329 320 304 293 285 289 319 354 2 8 10 15 19 20 18
237 238 240 241 235 227 218 187 196 194 191 214 216 215 246 248 258 260 250 245 251 246 259 258 287 280 266 266 261 244 238 248 280 318 312 301 291 279 273 291 310 347 1 359 9 18 27 30 27
235 236 238 238 237 231 215 216 198 198 192 201 230 221 235 233 239 252 255 253 246 249 252 248 265 270 266 263 262 263 246 255 256 281 301 295 280 274 281 295 318 8 20 11 8 25 32 30 24
238 233 239 238 238 232 230 218 202 204 198 205 218 227 233 239 236 243 247 246 246 253 252 254 262 270 267 262 255 260 268 262 267 273 276 283 286 282 282 289 312 337 344 345 358 8 16 16 13
237 237 236 239 238 234 228 226 224 209 210 206 219 227 228 237 236 237 243 246 244 251 260 257 261 260 258 254 253 253 262 275 272 276 279 280 284 286 279 270 276 308 339 343 352 348 4 5 8
237 237 236 240 241 237 223 238 215 211 218 216 221 225 229 232 237 235 237 237 240 246 255 255 257 259 258 253 248 249 255 258 269 272 270 272 273 280 288 283 290 291 319 354 10 6 20 13 4
239 238 239 240 240 236 223 218 235 231 212 221 225 230 234 235 239 239 235 239 243 246 248 254 253 251 252 251 253 252 254 252 257 264 268 268 267 281 288 286 281 286 299 322 339 356 10 9 5
237 241 238 238 241 239 223 216 221 231 225 222 217 230 233 238 247 246 244 243 237 241 241 255 253 247 244 247 249 253 251 258 257 256 262 266 268 273 277 276 275 280 288 297 317 330 348 360 359
237 240 242 246 243 241 230 219 223 226 231 224 233 228 234 237 243 252 253 247 251 246 246 251 246 244 239 239 245 249 253 256 257 262 270 267 267 267 270 271 270 274 279 289 302 317 331 341 1
243 243 242 244 239 237 229 224 220 225 230 228 228 230 238 243 243 249 255 251 240 237 244 243 241 238 238 237 240 244 249 254 255 263 267 269 266 264 265 263 265 275 283 289 293 307 338 351 354
244 245 247 241 241 239 233 228 216 229 232 234 231 226 239 241 243 245 249 253 249 245 232 241 239 241 237 239 239 240 245 248 252 262 267 266 268 266 265 263 264 271 282 286 293 300 301 306 328
247 248 246 243 243 243 239 232 227 228 236 236 234 223 229 239 239 245 244 254 253 250 240 234 237 239 240 236 238 237 238 244 252 257 263 260 266 268 268 265 265 270 277 281 286 293 297 311 320
245 246 247 246 247 245 242 237 229 234 237 237 234 230 231 237 248 253 251 255 259 255 249 236 239 235 239 239 237 236 236 240 246 250 256 256 259 264 270 271 271 270 272 273 278 284 289 295 301
251 249 248 250 249 249 249 241 231 233 232 234 234 239 234 240 247 248 249 245 250 250 247 237 234 237 236 239 240 238 237 237 241 247 250 249 254 257 262 271 273 267 266 268 273 277 281 289 282
255 254 252 251 253 254 261 255 251 232 221 226 233 241 240 239 244 250 249 249 245 259 250 241 235 232 235 238 240 239 239 240 241 246 246 243 252 252 256 260 266 267 264 265 270 270 272 282 290
257 257 253 251 254 254 260 247 245 244 233 229 234 242 243 243 241 246 253 255 259 247 243 243 251 234 234 229 239 239 235 239 237 244 244 247 241 248 255 262 256 265 262 266 269 273 279 281 277
266 265 263 253 252 252 251 250 240 243 241 225 229 237 244 246 250 256 256 262 258 236 259 240 240 244 237 232 230 236 237 236 235 236 243 258 241 245 250 252 259 261 258 261 265 264 268 275 277
264 262 259 256 245 247 242 246 241 236 237 231 227 228 238 246 252 256 257 253 252 257 253 248 233 243 241 238 233 232 239 246 242 239 235 246 242 242 243 246 250 258 257 259 262 261 266 273 270
260 259 259 258 254 239 241 242 247 247 241 238 230 229 234 241 246 250 250 256 256 254 254 247 238 238 246 239 236 236 233 235 238 245 236 238 235 234 248 243 243 252 255 255 261 263 267 270 272
264 258 256 255 251 242 240 239 243 248 244 244 241 236 237 241 245 248 249 253 256 253 250 249 245 238 241 245 240 236 242 239 237 238 239 234 243 252 250 237 244 247 254 257 254 261 266 260 264
266 263 262 257 253 247 246 239 239 234 245 242 242 240 238 237 246 247 249 251 249 250 250 244 244 241 240 243 247 243 238 240 245 242 248 252 239 251 256 251 249 261 254 253 255 260 262 258 261
266 262 262 267 268 262 256 256 249 233 228 238 242 245 244 238 239 244 244 246 248 245 247 247 243 242 238 238 243 248 247 241 243 244 246 243 247 250 256 242 244 256 258 266 253 260 259 262 268
263 260 261 264 264 269 264 262 249 237 236 240 242 243 241 247 256 255 246 242 242 247 247 247 245 243 242 238 240 241 247 250 250 246 244 247 247 249 252 258 263 263 254 262 263 267 256 276 264
263 259 261 266 266 266 268 259 248 247 248 245 247 250 255 256 254 253 249 247 243 241 244 246 249 245 241 240 238 241 248 245 248 250 250 249 253 256 256 254 256 259 256 255 267 270 257 275 270
260 256 262 264 270 274 269 267 264 252 252 252 244 247 251 250 242 244 247 249 251 249 245 246 240 242 242 240 242 238 242 248 249 250 252 253 253 251 253 253 261 266 261 262 261 265 266 267 261
253 266 272 277 277 272 264 267 275 271 261 248 239 240 239 240 236 235 238 247 248 253 253 249 246 242 243 242 241 241 241 245 249 252 255 249 252 256 255 258 261 263 261 265 263 264 270 254 263
278 270 263 272 278 285 270 256 259 263 254 245 232 230 227 234 239 248 251 252 253 256 263 258 248 245 244 243 244 244 243 246 247 250 253 260 259 260 258 258 254 259 250 249 251 262 259 251 253
279 257 265 276 278 273 263 239 253 259 273 253 264 210 206 217 228 235 239 249 253 252 256 249 250 249 246 246 244 246 249 247 248 248 247 252 255 252 257 256 255 255 254 251 251 253 256 263 270
261 273 270 275 267 261 276 252 253 263 273 273 249 207 206 211 220 230 237 240 246 246 239 234 238 243 245 238 236 240 245 247 249 251 251 249 253 250 252 252 245 252 261 255 267 265 258 257 273
261 261 261 265 271 264 259 261 258 271 271 279 256 254 230 228 227 234 239 248 260 259 258 252 244 241 241 241 246 242 242 242 244 246 249 250 251 252 248 250 249 246 239 247 250 253 247 243 239